Asheville, NC

5:35 AM EDT on October 22, 2017 (GMT -0400)
Asheville Regional

Weather History for KAVL - May, 2008

Change the Weather History Date:

Wednesday, May 7, 2008

  Actual Average Record
Temperature  
Mean Temperature 64 °F 61 °F  
Max Temperature 76 °F 73 °F 89 °F (1940)
Min Temperature 51 °F 49 °F 33 °F (1989)
Degree Days  
Heating Degree Days 1 5  
Month to date heating degree days 23 38  
Since 1 July heating degree days 3873 4110  
Cooling Degree Days 0 1  
Month to date cooling degree days 0 6  
Year to date cooling degree days 0 14  
Growing Degree Days 13 (Base 50)    
Moisture  
Dew Point 48 °F    
Average Humidity 59    
Maximum Humidity 83    
Minimum Humidity 35    
Precipitation  
Precipitation 0.00 in 0.11 in 2.17 in (1992)
Month to date precipitation T 0.80  
Year to date precipitation 13.70 15.39  
Snow  
Snow 0.00 in 0.00 in T in (1992)
Month to date snowfall 0.0 0.0  
Since 1 July snowfall 3.8 9.9  
Snow Depth -    
Sea Level Pressure  
Sea Level Pressure 29.99 in    
Wind  
Wind Speed 7 mph (South)    
Max Wind Speed 21 mph    
Max Gust Speed 25 mph    
Visibility 10 miles    
Events      
T = Trace of Precipitation, MM = Missing Value Source: NWS Daily Summary

Daily Weather History Graph

Daily Weather History Graph

Search for Another Location

Airport or City:

Trip Planner

Search our weather history database for the weather conditions in past years. The results will help you decide how hot, cold, wet, or windy it might be!

Date:

Astronomy

May. 07, 2008 Rise Set
Actual Time 6:32 AM EDT 8:21 PM EDT
Civil Twilight 6:04 AM EDT 8:49 PM EDT
Nautical Twilight 5:30 AM EDT 9:23 PM EDT
Astronomical Twilight 4:55 AM EDT 9:58 PM EDT
Moon 7:57 AM EDT (5/7) 11:30 PM EDT (5/7)
Length of Visible Light 14h 45m
Length of Day
13h 49m
Waxing Crescent, 7% of the Moon is Illuminated
May 7
Waxing Crescent
May 11
First Quarter
May 19
Full
May 27
Last Quarter
Jun 3
New

Hourly Weather History & Observations

Time (EDT) Temp. Dew Point Humidity Pressure Visibility Wind Dir Wind Speed Gust Speed Precip Events Conditions
12:54 AM 55.4 °F 44.6 °F 67% 30.09 in 10.0 mi Calm Calm - N/A   Clear
1:54 AM 55.0 °F 44.1 °F 67% 30.03 in 10.0 mi Calm Calm - N/A   Clear
2:54 AM 53.1 °F 46.9 °F 80% 30.02 in 10.0 mi Calm Calm - N/A   Clear
3:54 AM 53.1 °F 46.9 °F 80% 30.01 in 10.0 mi Calm Calm - N/A   Partly Cloudy
4:54 AM 53.1 °F 46.9 °F 80% 30.01 in 10.0 mi Calm Calm - N/A   Partly Cloudy
5:54 AM 51.1 °F 46.9 °F 86% 30.03 in 10.0 mi SSE 3.5 mph - N/A   Scattered Clouds
6:54 AM 51.8 °F 44.6 °F 76% 30.09 in 10.0 mi Calm Calm - N/A   Clear
7:54 AM 54.0 °F 46.0 °F 75% 30.06 in 10.0 mi SE 3.5 mph - N/A   Clear
8:54 AM 57.0 °F 46.9 °F 69% 30.07 in 10.0 mi Calm Calm - N/A   Clear
9:54 AM 63.0 °F 46.0 °F 54% 30.04 in 10.0 mi South 5.8 mph - N/A   Clear
10:54 AM 71.1 °F 48.0 °F 44% 30.02 in 10.0 mi South 13.8 mph - N/A   Clear
11:54 AM 73.0 °F 48.9 °F 42% 30.01 in 10.0 mi South 12.7 mph 17.3 mph N/A   Clear
12:54 PM 75.0 °F 46.9 °F 37% 29.98 in 10.0 mi SSW 13.8 mph 20.7 mph N/A   Mostly Cloudy
1:54 PM 72.0 °F 46.9 °F 41% 29.98 in 10.0 mi SSW 12.7 mph - N/A   Mostly Cloudy
2:54 PM 73.9 °F 45.0 °F 35% 29.96 in 10.0 mi South 18.4 mph 21.9 mph N/A   Overcast
3:54 PM 73.4 °F 48.2 °F 41% 29.99 in 10.0 mi South 15.0 mph - N/A   Mostly Cloudy
4:54 PM 73.9 °F 48.0 °F 40% 29.92 in 10.0 mi SSW 13.8 mph - N/A   Partly Cloudy
5:54 PM 73.9 °F 52.0 °F 46% 29.92 in 10.0 mi South 13.8 mph - N/A   Overcast
6:54 PM 72.0 °F 53.1 °F 51% 29.92 in 10.0 mi South 9.2 mph - N/A   Mostly Cloudy
7:54 PM 69.1 °F 52.0 °F 54% 29.91 in 10.0 mi South 8.1 mph - N/A   Scattered Clouds
8:54 PM 69.1 °F 52.0 °F 54% 29.92 in 10.0 mi SSE 4.6 mph - N/A   Overcast
9:54 PM 66.9 °F 53.1 °F 61% 29.92 in 10.0 mi East 3.5 mph - N/A   Mostly Cloudy
10:54 PM 64.9 °F 53.1 °F 65% 29.91 in 10.0 mi Calm Calm - N/A   Mostly Cloudy
11:54 PM 64.9 °F 53.1 °F 65% 29.90 in 10.0 mi Calm Calm - N/A   Mostly Cloudy